H-2A R/B (43682 NORAD) Tracking and Keplerian Element Data

This shows tracking and keplerian element data for the satellite.

Feedback or suggestion? Click here.




ElementValue
Catalog43682
NameH-2A R/B
Epoch Orbit206
Epoch Day316.26975123
Epoch Year2018
RAAN68.3272
Inclination98.8547
Eccentricity0.0056883
Argument of Perigee242.1114
Mean Anonmoly117.4376
Mean Motion15.02460669
Decay Rate9.78E-06
L11 43682U 18084L 18316.26975123 .00000978 00000-0 77364-4 0 9993
L22 43682 98.8547 68.3272 0056883 242.1114 117.4376 15.02460669 2065

Live tracking and technical data element details for H-2A R/B (NORAD 43682). H-2A R/B can be tracked NOW for your location showing map with azimuth and elevation plus other details from your city location.

Track the satellite on the map from your city or location and see movement details for azimuth, elevation, latitude, longitude, range, height, and movement on the map or in text.







IsCatalogInMostPopularTable: catalog: 43682, numindb: 4
Update: records affected: 1



GetName: 43682 H-2A R/B

Hit Count: updated at: Tue, 13 Nov 2018 06:57:17 GMT